�������l�o���
Date,Time,MP-1(��Sv/h),MP-2(��Sv/h),MP-3(��Sv/h),MP-4(��Sv/h),MP-5(��Sv/h),MP-6(��Sv/h),MP-7(��Sv/h),MP-8(��Sv/h),����,����(m/s),���J
2023/02/11,00:00,0.481,0.668,0.444,0.934,0.583,0.297,0.543,0.529,�k�k��,13.0,�L
2023/02/11,00:10,0.482,0.670,0.445,0.937,0.584,0.294,0.543,0.530,�k�k��,11.6,�L
2023/02/11,00:20,0.482,0.674,0.444,0.937,0.584,0.296,0.543,0.531,�k�k��,10.2,�L
2023/02/11,00:30,0.485,0.674,0.446,0.939,0.585,0.296,0.546,0.531,�k�k��,10.0,�L
2023/02/11,00:40,0.486,0.675,0.444,0.938,0.585,0.296,0.546,0.532,�k�k��,11.3,�L
2023/02/11,00:50,0.485,0.676,0.445,0.937,0.583,0.297,0.546,0.531,�k�k��,13.0,�L
2023/02/11,01:00,0.485,0.676,0.446,0.936,0.586,0.298,0.547,0.532,�k�k��,13.3,�L
2023/02/11,01:10,0.485,0.676,0.445,0.938,0.584,0.296,0.547,0.531,�k�k��,13.0,�L
2023/02/11,01:20,0.487,0.676,0.446,0.939,0.584,0.298,0.548,0.531,�k�k��,13.3,�L
2023/02/11,01:30,0.487,0.679,0.447,0.943,0.585,0.296,0.548,0.532,�k�k��,12.4,�L
2023/02/11,01:40,0.488,0.679,0.447,0.942,0.585,0.297,0.548,0.533,�k�k��,11.6,�L
2023/02/11,01:50,0.489,0.681,0.446,0.944,0.584,0.298,0.549,0.532,�k�k��,10.7,�L
2023/02/11,02:00,0.488,0.681,0.449,0.946,0.587,0.298,0.548,0.532,�k�k��,11.3,��
2023/02/11,02:10,0.490,0.683,0.448,0.947,0.588,0.297,0.547,0.533,�k�k��,11.8,��
2023/02/11,02:20,0.491,0.684,0.448,0.950,0.587,0.296,0.549,0.532,�k�k��,11.4,��
2023/02/11,02:30,0.492,0.686,0.446,0.947,0.588,0.296,0.549,0.533,�k,9.1,��
2023/02/11,02:40,0.490,0.685,0.448,0.950,0.589,0.295,0.551,0.534,�k�k��,9.1,��
2023/02/11,02:50,0.491,0.687,0.450,0.950,0.589,0.297,0.550,0.533,�k�k��,10.5,��
2023/02/11,03:00,0.493,0.687,0.449,0.952,0.588,0.297,0.550,0.533,�k�k��,9.8,��
2023/02/11,03:10,0.494,0.690,0.449,0.952,0.590,0.295,0.549,0.534,�k�k��,10.3,��
2023/02/11,03:20,0.493,0.688,0.450,0.953,0.590,0.295,0.552,0.535,�k,11.1,��
2023/02/11,03:30,0.493,0.690,0.451,0.955,0.590,0.297,0.552,0.536,�k�k��,10.8,��
2023/02/11,03:40,0.494,0.691,0.449,0.953,0.593,0.297,0.553,0.534,�k�k��,13.3,��
2023/02/11,03:50,0.494,0.691,0.450,0.957,0.594,0.297,0.553,0.533,�k�k��,11.0,��
2023/02/11,04:00,0.496,0.692,0.452,0.958,0.593,0.298,0.552,0.534,�k�k��,13.5,��
2023/02/11,04:10,0.497,0.691,0.452,0.958,0.596,0.297,0.554,0.536,�k�k��,13.5,��
2023/02/11,04:20,0.497,0.694,0.452,0.957,0.596,0.299,0.554,0.535,�k�k��,11.7,��
2023/02/11,04:30,0.498,0.692,0.452,0.959,0.596,0.298,0.553,0.536,�k�k��,11.4,��
2023/02/11,04:40,0.499,0.693,0.452,0.958,0.597,0.298,0.554,0.535,�k�k��,13.5,��
2023/02/11,04:50,0.498,0.693,0.454,0.960,0.597,0.298,0.554,0.536,�k�k��,14.4,��
2023/02/11,05:00,0.499,0.695,0.454,0.962,0.597,0.299,0.555,0.535,�k�k��,14.4,��
2023/02/11,05:10,0.500,0.696,0.452,0.961,0.600,0.298,0.556,0.535,�k�k��,10.6,��
2023/02/11,05:20,0.502,0.697,0.453,0.962,0.600,0.298,0.556,0.536,�k�k��,10.0,��
2023/02/11,05:30,0.501,0.696,0.454,0.963,0.600,0.299,0.555,0.538,�k�k��,13.5,��
2023/02/11,05:40,0.502,0.698,0.453,0.964,0.601,0.299,0.554,0.535,�k�k��,13.6,��
2023/02/11,05:50,0.503,0.698,0.456,0.966,0.601,0.299,0.557,0.536,�k�k��,12.2,��
2023/02/11,06:00,0.501,0.698,0.455,0.965,0.603,0.299,0.557,0.536,�k�k��,10.9,��
2023/02/11,06:10,0.504,0.700,0.455,0.965,0.602,0.300,0.556,0.536,�k�k��,10.3,��
2023/02/11,06:20,0.503,0.699,0.454,0.968,0.602,0.300,0.557,0.537,�k�k��,10.2,��
2023/02/11,06:30,0.503,0.697,0.455,0.966,0.603,0.301,0.557,0.537,�k�k��,10.2,��
2023/02/11,06:40,0.503,0.700,0.456,0.967,0.604,0.300,0.555,0.536,�k�k��,8.3,��
2023/02/11,06:50,0.503,0.701,0.454,0.968,0.603,0.300,0.556,0.536,�k�k��,9.2,��
2023/02/11,07:00,0.504,0.701,0.454,0.967,0.604,0.300,0.557,0.537,�k�k��,9.4,��
2023/02/11,07:10,0.504,0.700,0.455,0.969,0.608,0.300,0.558,0.537,�k�k��,10.2,��
2023/02/11,07:20,0.504,0.700,0.454,0.969,0.605,0.301,0.558,0.536,�k�k��,9.8,��
2023/02/11,07:30,0.506,0.702,0.453,0.970,0.607,0.301,0.558,0.537,�k,7.6,��
2023/02/11,07:40,0.506,0.702,0.456,0.970,0.608,0.299,0.557,0.537,�k,7.7,��
2023/02/11,07:50,0.504,0.702,0.457,0.971,0.609,0.301,0.559,0.536,�k,6.9,��
2023/02/11,08:00,0.505,0.702,0.454,0.971,0.609,0.300,0.558,0.537,�k�k��,6.0,��
2023/02/11,08:10,0.505,0.704,0.455,0.972,0.611,0.300,0.558,0.536,�k�k��,7.1,��
2023/02/11,08:20,0.507,0.705,0.456,0.973,0.609,0.299,0.558,0.536,�k�k��,8.6,��
2023/02/11,08:30,0.509,0.704,0.456,0.972,0.611,0.302,0.558,0.536,�k�k��,8.5,��
2023/02/11,08:40,0.507,0.705,0.457,0.972,0.613,0.301,0.560,0.538,�k�k��,8.6,��
2023/02/11,08:50,0.509,0.707,0.457,0.973,0.612,0.300,0.558,0.537,�k�k��,8.3,��
2023/02/11,09:00,0.509,0.709,0.457,0.972,0.616,0.301,0.560,0.538,�k��,7.7,��
2023/02/11,09:10,0.510,0.710,0.458,0.975,0.617,0.301,0.560,0.538,�k��,6.5,��
2023/02/11,09:20,0.512,0.711,0.458,0.974,0.617,0.301,0.560,0.537,�k�k��,5.7,��
2023/02/11,09:30,0.514,0.714,0.458,0.976,0.620,0.301,0.560,0.538,�k�k��,4.5,��
2023/02/11,09:40,0.515,0.717,0.461,0.973,0.622,0.301,0.559,0.537,�k�k��,5.4,��
2023/02/11,09:50,0.514,0.718,0.461,0.974,0.625,0.302,0.561,0.538,�k�k��,6.3,��
2023/02/11,10:00,0.517,0.719,0.462,0.977,0.626,0.302,0.561,0.538,�k�k��,7.1,��
2023/02/11,10:10,0.518,0.721,0.464,0.978,0.628,0.302,0.560,0.538,�k,7.1,��
2023/02/11,10:20,0.521,0.728,0.466,0.979,0.633,0.303,0.561,0.538,�k�k��,7.6,��
2023/02/11,10:30,0.522,0.728,0.465,0.979,0.636,0.303,0.561,0.540,�k,8.2,��
2023/02/11,10:40,0.523,0.731,0.467,0.979,0.636,0.305,0.561,0.539,�k�k��,6.8,��
2023/02/11,10:50,0.525,0.731,0.469,0.980,0.639,0.306,0.562,0.539,�k,7.6,��
2023/02/11,11:00,0.526,0.736,0.470,0.982,0.643,0.305,0.561,0.540,�k,9.8,��
2023/02/11,11:10,0.527,0.741,0.473,0.981,0.646,0.307,0.561,0.540,�k�k��,10.2,��
2023/02/11,11:20,0.529,0.745,0.473,0.985,0.649,0.307,0.563,0.541,�k�k��,8.1,��
2023/02/11,11:30,0.530,0.747,0.477,0.982,0.652,0.307,0.563,0.541,�k�k��,8.3,��
2023/02/11,11:40,0.532,0.750,0.480,0.987,0.651,0.308,0.562,0.541,�k�k��,9.7,��
2023/02/11,11:50,0.533,0.751,0.480,0.987,0.655,0.309,0.563,0.541,�k�k��,7.7,��
2023/02/11,12:00,0.534,0.752,0.482,0.989,0.656,0.308,0.564,0.541,�k�k��,7.1,��
2023/02/11,12:10,0.535,0.754,0.483,0.987,0.659,0.309,0.565,0.542,�k,6.0,��
2023/02/11,12:20,0.537,0.758,0.486,0.989,0.660,0.309,0.566,0.542,�k�k��,7.2,��
2023/02/11,12:30,0.537,0.758,0.486,0.989,0.663,0.309,0.564,0.542,�k�k��,9.5,��
2023/02/11,12:40,0.538,0.760,0.488,0.989,0.665,0.310,0.564,0.543,�k�k��,8.3,��
2023/02/11,12:50,0.539,0.762,0.488,0.991,0.665,0.310,0.564,0.544,�k,7.6,��
2023/02/11,13:00,0.539,0.762,0.490,0.990,0.666,0.310,0.566,0.541,�k�k��,8.1,��
2023/02/11,13:10,0.539,0.763,0.489,0.994,0.667,0.310,0.566,0.543,�k�k��,7.9,��
2023/02/11,13:20,0.541,0.763,0.490,0.993,0.670,0.311,0.565,0.543,�k�k��,8.4,��
2023/02/11,13:30,0.539,0.765,0.490,0.995,0.671,0.309,0.565,0.543,�k�k��,7.9,��
2023/02/11,13:40,0.540,0.769,0.491,0.993,0.671,0.311,0.565,0.541,�k�k��,7.4,��
2023/02/11,13:50,0.539,0.768,0.492,0.996,0.672,0.311,0.566,0.543,�k�k��,8.5,��
2023/02/11,14:00,0.540,0.770,0.492,0.997,0.672,0.312,0.565,0.543,�k�k��,7.5,��
2023/02/11,14:10,0.541,0.770,0.492,0.996,0.674,0.311,0.565,0.543,�k�k��,7.1,��
2023/02/11,14:20,0.543,0.770,0.493,0.997,0.674,0.312,0.566,0.541,�k�k��,7.1,��
2023/02/11,14:30,0.543,0.773,0.493,0.996,0.674,0.312,0.567,0.541,�k�k��,7.3,��
2023/02/11,14:40,0.542,0.774,0.493,0.998,0.675,0.312,0.567,0.541,�k�k��,6.5,��
2023/02/11,14:50,0.543,0.774,0.494,0.998,0.676,0.312,0.567,0.540,�k�k��,6.5,��
2023/02/11,15:00,0.543,0.774,0.495,0.998,0.676,0.313,0.568,0.540,�k�k��,5.6,��
2023/02/11,15:10,0.544,0.774,0.495,1.000,0.677,0.312,0.568,0.543,�k�k��,6.5,��
2023/02/11,15:20,0.544,0.774,0.495,0.999,0.678,0.313,0.568,0.542,�k�k��,5.4,��
2023/02/11,15:30,0.544,0.776,0.496,0.999,0.677,0.312,0.569,0.545,�k�k��,5.5,��
2023/02/11,15:40,0.544,0.777,0.494,0.999,0.677,0.313,0.569,0.543,�k�k��,4.9,��
2023/02/11,15:50,0.545,0.776,0.494,1.000,0.677,0.313,0.570,0.544,�k�k��,4.6,��
2023/02/11,16:00,0.545,0.777,0.495,1.001,0.679,0.313,0.570,0.544,�k�k��,4.4,��
2023/02/11,16:10,0.545,0.778,0.497,1.000,0.678,0.312,0.569,0.542,�k�k��,4.8,��
2023/02/11,16:20,0.544,0.778,0.496,1.000,0.677,0.312,0.570,0.543,�k,4.5,��
2023/02/11,16:30,0.544,0.779,0.498,1.001,0.678,0.313,0.570,0.544,�k,4.4,��
2023/02/11,16:40,0.545,0.779,0.495,1.003,0.680,0.314,0.568,0.542,�k,4.7,��
2023/02/11,16:50,0.545,0.781,0.497,0.998,0.679,0.313,0.570,0.545,�k�k��,4.9,��
2023/02/11,17:00,0.545,0.779,0.497,1.000,0.680,0.312,0.571,0.544,�k,3.7,��
2023/02/11,17:10,0.546,0.779,0.495,0.999,0.681,0.312,0.571,0.543,�k�k��,4.5,��
2023/02/11,17:20,0.545,0.780,0.496,1.000,0.682,0.313,0.569,0.542,�k�k��,4.3,��
2023/02/11,17:30,0.545,0.780,0.496,1.000,0.682,0.313,0.571,0.544,�k�k��,4.3,��
2023/02/11,17:40,0.544,0.779,0.495,0.999,0.681,0.312,0.568,0.543,�k�k��,3.8,��
2023/02/11,17:50,0.546,0.779,0.496,1.000,0.683,0.312,0.569,0.544,�k��,3.5,��
2023/02/11,18:00,0.544,0.780,0.495,1.000,0.682,0.313,0.567,0.542,�k��,3.8,��
2023/02/11,18:10,0.544,0.780,0.494,1.000,0.682,0.312,0.570,0.544,�k��,3.5,��
2023/02/11,18:20,0.545,0.781,0.495,1.002,0.683,0.312,0.568,0.543,�k��,4.2,��
2023/02/11,18:30,0.546,0.778,0.496,1.001,0.684,0.313,0.570,0.542,�k��,3.5,��
2023/02/11,18:40,0.542,0.780,0.496,1.000,0.683,0.313,0.568,0.542,�k��,4.0,��
2023/02/11,18:50,0.544,0.781,0.495,1.001,0.683,0.313,0.568,0.543,�k��,3.9,��
2023/02/11,19:00,0.543,0.778,0.495,1.002,0.683,0.312,0.568,0.543,�k��,3.8,��
2023/02/11,19:10,0.546,0.779,0.494,1.002,0.685,0.312,0.569,0.542,�k��,4.1,��
2023/02/11,19:20,0.544,0.781,0.495,1.004,0.683,0.313,0.570,0.542,�k��,3.8,��
2023/02/11,19:30,0.545,0.781,0.495,1.002,0.683,0.312,0.568,0.543,���k��,4.1,��
2023/02/11,19:40,0.544,0.782,0.496,1.002,0.683,0.313,0.568,0.542,�k��,3.7,��
2023/02/11,19:50,0.544,0.781,0.496,1.003,0.681,0.313,0.569,0.543,�k��,3.8,��
2023/02/11,20:00,0.544,0.781,0.496,1.003,0.683,0.313,0.568,0.543,�k��,3.7,��
2023/02/11,20:10,0.543,0.783,0.496,1.001,0.685,0.312,0.570,0.543,�k��,4.3,��
2023/02/11,20:20,0.544,0.780,0.494,1.002,0.684,0.313,0.567,0.542,�k��,3.8,��
2023/02/11,20:30,0.543,0.781,0.495,1.001,0.684,0.313,0.568,0.543,���k��,3.6,��
2023/02/11,20:40,0.545,0.779,0.495,1.002,0.684,0.312,0.569,0.543,�k��,3.9,��
2023/02/11,20:50,0.545,0.781,0.498,1.002,0.685,0.313,0.568,0.543,�k��,4.1,��
2023/02/11,21:00,0.544,0.781,0.496,1.005,0.684,0.313,0.569,0.543,�k��,4.0,��
2023/02/11,21:10,0.544,0.778,0.496,1.003,0.685,0.312,0.567,0.544,�k��,4.0,��
2023/02/11,21:20,0.545,0.780,0.495,1.003,0.684,0.314,0.569,0.544,�k��,3.6,��
2023/02/11,21:30,0.545,0.779,0.496,1.001,0.683,0.312,0.569,0.545,���k��,3.3,��
2023/02/11,21:40,0.544,0.781,0.496,1.002,0.685,0.314,0.568,0.544,���k��,3.5,��
2023/02/11,21:50,0.545,0.781,0.496,1.001,0.685,0.312,0.568,0.543,�k��,3.2,��
2023/02/11,22:00,0.545,0.783,0.494,1.002,0.685,0.313,0.568,0.544,�k��,4.5,��
2023/02/11,22:10,0.544,0.779,0.496,1.002,0.684,0.312,0.567,0.543,�k��,4.5,��
2023/02/11,22:20,0.543,0.781,0.495,1.003,0.685,0.313,0.568,0.543,�k��,4.9,��
2023/02/11,22:30,0.545,0.782,0.495,1.003,0.685,0.312,0.567,0.542,�k��,4.9,��
2023/02/11,22:40,0.544,0.779,0.496,1.003,0.686,0.313,0.568,0.544,�k��,4.4,��
2023/02/11,22:50,0.544,0.780,0.497,1.001,0.685,0.314,0.570,0.544,�k��,3.7,��
2023/02/11,23:00,0.543,0.782,0.494,1.003,0.684,0.313,0.569,0.544,�k��,3.9,��
2023/02/11,23:10,0.545,0.781,0.496,1.004,0.685,0.312,0.569,0.542,�k��,3.6,��
2023/02/11,23:20,0.544,0.780,0.496,1.003,0.685,0.314,0.568,0.543,�k��,3.3,��
2023/02/11,23:30,0.544,0.781,0.495,1.006,0.683,0.313,0.570,0.543,�k��,3.3,��
2023/02/11,23:40,0.544,0.780,0.495,1.005,0.685,0.313,0.569,0.543,�k��,3.6,��
2023/02/11,23:50,0.543,0.780,0.497,1.004,0.685,0.312,0.567,0.544,�k��,3.5,��
